Regional Weather Roundup
Issued by NWS

Home | Current Version | Previous Version | Text Only | Print | Product List | Glossary On
Versions: 1 2 3 4 5 6 7 8 9 10 11 12 13 14 15 16 17 18 19 20 21 22 23 24 25 26 27 28 29 30 31 32 33 34 35 36 37 38 39 40 41 42 43 44 45 46 47 48 49 50
138
ASUS44 KJAN 190003
RWRMS

MISSISSIPPI HOURLY WEATHER ROUNDUP
NATIONAL WEATHER SERVICE JACKSON MS
700 PM CDT THU SEP 18 2014

NOTE: "FAIR: INDICATES FEW OR NO CLOUDS BELOW 12,000 FEET WITH NO
SIGNIFICANT WEATHER AND/OR OBSTRUCTIONS TO VISIBILITY.

MSZ001>002-007>008-010>013-018>021-025>028-034>036-190100-
NORTHWEST MISSISSIPPI

CITY           SKY/WX    TMP DP  RH WIND       PRES   REMARKS
CLARKSDALE     FAIR      72  72 100 CALM      29.93S
CLEVELAND      FAIR      73  73  98 E3        29.91R
GREENWOOD      LGT RAIN  71  69  93 NE8       29.93F
6HR MIN TEMP:  71; 6HR MAX TEMP:  90; 6HR PCP:  0.01;

GREENVILLE     MOCLDY    77  67  71 E6        29.90R
6HR MIN TEMP:  75; 6HR MAX TEMP:  93; 6HR PCP: TRACE;

GRENADA        FAIR      68  64  88 N3        29.96S
OLIVE BRANCH   MOCLDY    72  72 100 NE9       29.95R
OXFORD         FOG       68  66  94 SW9G23    30.01R THUNDER VSB 1/4
TUNICA         LGT RAIN  72  66  83 CALM      29.94S
$$

MSZ003>006-009-014>017-022>024-029>033-037>039-190100-
NORTHEAST MISSISSIPPI

CITY           SKY/WX    TMP DP  RH WIND       PRES   REMARKS
COLUMBUS AFB   TSTM      77  73  88 SE5       29.91R
CORINTH        CLOUDY    72  66  83 CALM      29.96R
GOLDN TRIANGLE MOCLDY    81  66  61 NW9       29.94R
STARKVILLE     LGT RAIN  72  70  94 CALM      29.95R
TUPELO         CLOUDY    75  66  73 E6        29.94R
6HR MIN TEMP:  75; 6HR MAX TEMP:  85;

$$

MSZ040-058-190100-
CENTRAL MISSISSIPPI

CITY           SKY/WX    TMP DP  RH WIND       PRES   REMARKS
JACKSON INTL   TSTM      74  69  85 NE16G31   29.94R
6HR MIN TEMP:  74; 6HR MAX TEMP:  90; 6HR PCP:  0.16;

JACKSON HAWKNS CLOUDY    72  66  81 NE10G22   29.95R
6HR MIN TEMP:  72; 6HR MAX TEMP:  90; 6HR PCP:  0.17;

MERIDIAN KEY   CLOUDY    75  71  87 N6        29.93R
6HR MIN TEMP:  70; 6HR MAX TEMP:  89; 6HR PCP:  0.74;

MERIDIAN NAS   CLOUDY    73  70  90 CALM      29.93R
6HR MIN TEMP:  73; 6HR MAX TEMP:  90; 6HR PCP:  0.02;

RAYMOND        FAIR      73  68  83 W5        29.92R
VICKSBURG      MOCLDY    77  69  76 CALM      29.89R
6HR MIN TEMP:  77; 6HR MAX TEMP:  89;

$$

MSZ059>079-190100-
SOUTH MISSISSIPPI

CITY           SKY/WX    TMP DP  RH WIND       PRES   REMARKS
BROOKHAVEN     FAIR      79  75  89 CALM      29.93R
COLUMBIA       FAIR      79  77  94 CALM      29.89R
HATTIESBURG    CLOUDY    74  69  85 CALM      29.92R
6HR MIN TEMP:  73; 6HR MAX TEMP:  87; 6HR PCP:  0.16;

MCCOMB         CLOUDY    81  73  76 CALM      29.91R
6HR MIN TEMP:  80; 6HR MAX TEMP:  84;

NATCHEZ        CLOUDY    81  73  78 CALM      29.90R
6HR MIN TEMP:  81; 6HR MAX TEMP:  84;

PINE BELT      CLOUDY    75  66  73 S3        29.93R
$$

MSZ080>082-190100-
COASTAL MISSISSIPPI

CITY           SKY/WX    TMP DP  RH WIND       PRES   REMARKS
BAY ST LOUIS   RAIN      84  70  61 S14G28    29.91R VSB 1
BILOXI         HVY RAIN  75  71  88 NE25G35   29.91R VSB 1/2
6HR MIN TEMP:  75; 6HR MAX TEMP:  88; 6HR PCP:  0.30;

PASCAGOULA     CLOUDY    71  69  93 N7        29.92R
6HR MIN TEMP:  70; 6HR MAX TEMP:  88; 6HR PCP: TRACE;

GULFPORT       CLOUDY    83  74  74 NE12G17   29.89R
6HR MIN TEMP:  83; 6HR MAX TEMP:  86;

$$



USA.gov is the U.S. government's official web portal to all federal, state and local government web resources and services.